Left ArrowRight Arrow

Hourly Observations for June 16, 2024

Temp ( °F °C ) Dew Point ( °F °C ) Humidity (%) Winds ( mph kmh ) Pressure ( in mb ) Visibility ( mi km ) Precip ( " mm )
12:52 am 00:52 Clear 71 21.7 53 11.7 53 53 SSE 8 13 29.95 1014 10 16 0.00 0.00
1:52 am 01:52 Clear 70 21.1 53 11.7 55 55 S 7 11 29.95 1014 10 16 0.00 0.00
2:52 am 02:52 Clear 72 22.2 51 10.6 48 48 SSE 12 19 29.93 1013 10 16 0.00 0.00
3:52 am 03:52 Clear 71 21.7 51 10.6 49 49 SSE 13 20 29.92 1013 10 16 0.00 0.00
4:52 am 04:52 Clear 69 20.6 52 11.1 54 54 SSE 9 15 29.93 1014 10 16 0.00 0.00
5:52 am 05:52 Mostly Cloudy 70 21.1 52 11.1 53 53 SSE 14 22 29.93 1014 10 16 0.00 0.00
6:52 am 06:52 Mostly Cloudy 71 21.7 52 11.1 51 51 SSE 15 24 29.92 1013 10 16 0.00 0.00
7:52 am 07:52 Mostly Sunny 72 22.2 54 12.2 53 53 S 16 26 29.91 1013 10 16 0.00 0.00
8:52 am 08:52 Mostly Sunny 76 24.4 57 13.9 52 52 S 16 26 29.90 1013 10 16 0.00 0.00
9:52 am 09:52 Sunny 80 26.7 60 15.6 51 51 S 18 30 29.90 1012 10 16 0.00 0.00
10:52 am 10:52 Sunny 82 27.8 62 16.7 51 51 S 20 31 29.88 1012 10 16 0.00 0.00
11:52 am 11:52 Mostly Sunny 86 30 66 18.9 51 51 S 17 28 29.86 1011 10 16 0.00 0.00
12:52 pm 12:52 Sunny 89 31.7 69 20.6 52 52 S 16 26 29.83 1010 10 16 0.00 0.00
1:52 pm 13:52 Sunny 91 32.8 66 18.9 44 44 SSW 18 30 29.81 1010 10 16 0.00 0.00
2:52 pm 14:52 Mostly Sunny 92 33.3 66 18.9 43 43 SSW 17 28 29.81 1009 10 16 0.00 0.00
3:52 pm 15:52 Partly Cloudy 93 33.9 67 19.4 43 43 SSW 21 33 29.80 1009 10 16 0.00 0.00
4:52 pm 16:52 Mostly Cloudy 82 27.8 64 17.8 55 55 WSW 25 41 29.85 1011 9 14 0.00 0.00
5:15 pm 17:15 Partly Cloudy with Nearby Thunderstorms 81 27.2 62 16.7 53 53 WSW 21 33 29.82 1010 10 16 0.00 0.00
5:30 pm 17:30 Mostly Sunny 80 26.7 61 16.1 52 52 WSW 20 31 29.82 1010 10 16 0.00 0.00
5:52 pm 17:52 Partly Cloudy with Light Rain 76 24.4 65 18.3 69 69 WSW 15 24 29.85 1011 8 13 0.01 0.25
6:52 pm 18:52 Mostly Cloudy 76 24.4 66 18.9 71 71 W 9 15 29.83 1010 10 16 0.02 0.51
7:52 pm 19:52 Partly Cloudy with Light Rain 74 23.3 66 18.9 76 76 WSW 10 17 29.82 1010 10 16 0.01 0.25
8:52 pm 20:52 Clear 73 22.8 66 18.9 79 79 Calm 29.82 1010 10 16 0.01 0.13
9:52 pm 21:52 Clear 72 22.2 68 20 87 87 Calm 29.85 1011 10 16 0.00 0.00
10:52 pm 22:52 Clear 73 22.8 67 19.4 81 81 Calm 29.87 1011 10 16 0.00 0.00
11:52 pm 23:52 Mostly Clear 71 21.7 67 19.4 87 87 S 5 7 29.88 1012 10 16 0.00 0.00

Powered by Vaisala Xweather